COSMOS 397 DEB, 5187

Orbit data source: Space-Track

COSMOS 397 DEB, 5187 is space debris in LEO originally from a launch on Thu, 25 Feb 1971 UTC launched from the Tyuratam Missile And Space Complex (TTMTR). Debris objects in space refer to the collection of defunct objects orbiting the Earth. Examples of debris include non-operational satellites, rocket bodies, and fragments generated from explosions, collisions, or faulty payload assembly.

Loading next visibility...
Identifier
5187, 1971-015AM
Orbit
LEO
Country
Flag of CISCIS
Related business
Manufacturer
Unknown
Mission
Spacecraft
Bus & Motor
Unknown
Mass
Unknown
Launch date (UTC)
1971-02-25 (55 years ago)
Launch vehicle
Unknown
Launch site
Tyuratam Missile And Space Complex (TTMTR)
Object type
Payload
Rocket body
Debris
Shape & HBR
Unknown shape, 0.1 m
Radar Cross Section
Small (<0.1 m²)

Expand to show TLE details & history
Last TLE update: 6 hours ago

TLE from 6 hours ago
0 COSMOS 397 DEB
1 05187U 71015AM  25349.93239556  .00001427  00000-0  40360-3 0  9990
2 05187  65.6468 316.9904 0591183 174.3667 186.4460 13.78040540646750
Epoch: 2025-12-15T22:22Z
TLE epoch observation values (Epoch: 2025-12-15T22:22:38.976Z)
Latitude
-0.00001°
Longitude
-103.49587°
Altitude
1,404.884 km
Speed
6.945 km/s
True Right ascension
21h 07m 57s
True Declination
0° 00' 00"
Sunlit
Object was in daylight at epoch
Visualization orbit readout
Latitude
Unknown
Longitude
Unknown
Altitude
Unknown
Speed
Unknown
Apparent Right ascension
Unknown
Apparent Declination
Unknown
Sunlit
N/A
Visualization observer readout
Local Sidereal Time
03:10:45
Azimuth
Unknown
Elevation
Unknown
Doppler factor
Unknown
Orbital elements
Apogee altitude
1,403.746 km
Perigee altitude
535.002 km
Semi-major axis
7,347.511 km
Eccentricity
0.05912
Inclination
65.6468°
RAAN
316.9904°
Arg. of periapsis
174.3667°
True anomaly
185.73763°
Mean anomaly
186.446°
Eccentric anomaly
186.08683°
Mean motion
3.44614 °/min
Orbital period
104.46 mins
BSTAR
0.0004036
Loading maneuver chart data...
Computing Atmospheric mass density...

Documentation

Showing up to 5 results
|